Weather History for Milwaukee Timmerman, WI

Change the Weather History Date:

Thursday, September 27, 2012

  Actual Average Record
Temperature  
Mean Temperature 49 °F -  
Max Temperature 59 °F 69 °F 85 °F (1963)
Min Temperature 39 °F 49 °F 33 °F (1991)
Degree Days  
Heating Degree Days 16    
Moisture  
Dew Point -    
Average Humidity    
Maximum Humidity    
Minimum Humidity    
Precipitation  
Precipitation 0.00 in - - ()
Sea Level Pressure  
Sea Level Pressure 30.22 in    
Wind  
Wind Speed 3 mph (North)    
Max Wind Speed 16 mph    
Max Gust Speed 22 mph    
Visibility 10 miles    
Events      
Averages and records for this station are not official NWS values.
T = Trace of Precipitation, MM = Missing Value Source: NWS Daily Summary

Daily Weather History Graph

Daily Weather History Graph

Search for Another Location

Airport:

Trip Planner

Search our weather history database for the weather conditions in past years. The results will help you decide how hot, cold, wet, or windy it might be!

Date:

Astronomy

Sep. 27, 2012 Rise Set
Actual Time 6:45 AM CDT 6:39 PM CDT
Civil Twilight 6:17 AM CDT 7:07 PM CDT
Nautical Twilight 5:44 AM CDT 7:40 PM CDT
Astronomical Twilight 5:10 AM CDT 8:14 PM CDT
Moon 5:12 PM CDT (9/27) 4:11 AM CDT (9/27)
Length of Visible Light 12h 50m
Length of Day
11h 54m
Waxing Gibbous, 94% of the Moon is Illuminated
Sep 27
Waxing Gibbous
Sep 29
Full
Oct 8
Last Quarter
Oct 15
New
Oct 21
First Quarter

Hourly Weather History & Observations

Time (CDT) Temp. Windchill Dew Point Humidity Pressure Visibility Wind Dir Wind Speed Gust Speed Precip Events Conditions
12:35 AM 41.0 °F - - N/A% 30.21 in 10.0 mi Calm Calm - N/A   Clear
12:55 AM 41.0 °F - - N/A% 30.21 in 10.0 mi Calm Calm - N/A   Clear
1:15 AM 41.0 °F - - N/A% 30.22 in 10.0 mi Calm Calm - N/A   Clear
1:35 AM 39.2 °F - - N/A% 30.22 in 10.0 mi Calm Calm - N/A   Clear
1:55 AM 41.0 °F - - N/A% 30.21 in 10.0 mi Calm Calm - N/A   Clear
2:15 AM 39.2 °F - - N/A% 30.21 in 10.0 mi Calm Calm - N/A   Clear
2:35 AM 39.2 °F - - N/A% 30.21 in 10.0 mi Calm Calm - N/A   Clear
2:55 AM 39.2 °F - - N/A% 30.21 in 10.0 mi Calm Calm - N/A   Clear
3:15 AM 41.0 °F - - N/A% 30.21 in 10.0 mi Calm Calm - N/A   Clear
3:35 AM 42.8 °F 41.1 °F - N/A% 30.21 in 10.0 mi North 3.5 mph - N/A   Clear
4:15 AM 42.8 °F 41.1 °F - N/A% 30.21 in 10.0 mi North 3.5 mph - N/A   Clear
4:35 AM 42.8 °F 41.1 °F - N/A% 30.21 in 10.0 mi North 3.5 mph - N/A   Scattered Clouds
4:55 AM 41.0 °F 39.0 °F - N/A% 30.22 in 10.0 mi North 3.5 mph - N/A   Scattered Clouds
5:15 AM 42.8 °F 39.3 °F - N/A% 30.22 in 10.0 mi North 5.8 mph - N/A   Mostly Cloudy
5:35 AM 44.6 °F 40.7 °F - N/A% 30.22 in 10.0 mi North 6.9 mph - N/A   Overcast
5:55 AM 44.6 °F 41.4 °F - N/A% 30.23 in 10.0 mi North 5.8 mph - N/A   Mostly Cloudy
6:15 AM 44.6 °F 41.4 °F - N/A% 30.23 in 10.0 mi North 5.8 mph - N/A   Mostly Cloudy
6:35 AM 44.6 °F 40.7 °F - N/A% 30.23 in 10.0 mi North 6.9 mph - N/A   Mostly Cloudy
6:45 AM 46.4 °F 42.9 °F - N/A% 30.23 in 10.0 mi North 6.9 mph - N/A   Mostly Cloudy
6:55 AM 46.4 °F 42.4 °F - N/A% 30.23 in 10.0 mi North 8.1 mph - N/A   Overcast
7:45 AM 48.2 °F - - N/A% 30.24 in 10.0 mi North 5.8 mph - N/A   Mostly Cloudy
8:45 AM 55.4 °F - - N/A% 30.26 in 10.0 mi ENE 6.9 mph - N/A   Overcast
9:45 AM 55.4 °F - - N/A% 30.26 in 10.0 mi NE 10.4 mph - N/A   Overcast
11:45 AM 57.2 °F - - N/A% 30.26 in 10.0 mi ENE 8.1 mph - N/A   Overcast
1:45 PM 59.0 °F - - N/A% 30.22 in 10.0 mi NNE 16.1 mph 21.9 mph N/A   Mostly Cloudy
2:45 PM 59.0 °F - - N/A% 30.22 in 10.0 mi NE 10.4 mph 17.3 mph N/A   Overcast
4:50 PM 55.4 °F - - N/A% 30.21 in 10.0 mi NNE 11.5 mph - N/A   Overcast
5:45 PM 55.4 °F - - N/A% 30.21 in 10.0 mi North 10.4 mph - N/A   Overcast
6:50 PM 53.6 °F - - N/A% 30.20 in 10.0 mi NNE 8.1 mph - N/A   Mostly Cloudy
7:50 PM 53.6 °F - - N/A% 30.20 in 10.0 mi NNE 8.1 mph - N/A   Mostly Cloudy
8:45 PM 51.8 °F - - N/A% 30.21 in 10.0 mi North 3.5 mph - N/A   Mostly Cloudy
9:35 PM 48.2 °F - - N/A% 30.21 in 10.0 mi Calm Calm - N/A   Scattered Clouds
9:55 PM 48.2 °F - - N/A% 30.21 in 10.0 mi Calm Calm - N/A   Mostly Cloudy
10:15 PM 50.0 °F - - N/A% 30.21 in 10.0 mi NW 4.6 mph - N/A   Overcast
10:35 PM 50.0 °F - - N/A% 30.21 in 10.0 mi North 4.6 mph - N/A   Overcast
10:55 PM 50.0 °F - - N/A% 30.21 in 10.0 mi North 3.5 mph - N/A   Mostly Cloudy
11:15 PM 46.4 °F 45.2 °F - N/A% 30.21 in 10.0 mi North 3.5 mph - N/A   Scattered Clouds
11:35 PM 46.4 °F - - N/A% 30.21 in 10.0 mi Calm Calm - N/A   Scattered Clouds